Location: Chmeln�
(49.6483°N, 14.9871°E)
Time: 05:48:59
(UTC+00:00)

CZ-4C R/B - Pass Details

Date: 18 September 2020
Orbit: 626 x 1376 km, 63.4° (Epoch: 27 October)

Event Time Altitude Azimuth Distance (km) Brightness Sun altitude
Exits shadow 23:02:01 30° 22° (NNE) 1,579 3.9 -38.9°
Drops below altitude 10° 23:05:29 10° 39° (NE) 2,752 5.4 -38.9°
Sets 23:08:27 0° 45° (NE) 3,833 6.2 -38.9°
